Location: Stoke Bliss
(52.2667°N, 2.5167°W)
Time: 21:38:09
(UTC+00:00)

Cosmos 1378 - Pass Details

Date: 03 March 2021
Orbit: 489 x 501 km, 82.5° (Epoch: 15 April)

Event Time Altitude Azimuth Distance (km) Brightness Sun altitude
Rises 19:58:16 0° 350° (N) 2,607 7.1 -19.7°
Reaches altitude 10° 20:00:25 10° 353° (N) 1,717 6.1 -20.1°
Enters shadow 20:04:09 72° 74° (ENE) 531 3.0 -20.6°
